Regional Weather Roundup
Issued by NWS

Home | Current Version | Previous Version | Graphics & Text | Print | Product List | Glossary On
Versions: 1 2 3 4 5 6 7 8 9 10 11 12 13 14 15 16 17 18 19 20 21 22 23 24 25 26 27 28 29 30 31 32 33 34 35 36 37 38 39 40 41 42 43 44 45 46 47 48 49 50
000
ASUS43 KOAX 220710
RWRNE

WEATHER ROUNDUP FOR NEBRASKA
NATIONAL WEATHER SERVICE OMAHA NE
200 AM CDT MON MAY 22 2017

NOTES: SATELLITE DATA IS BEING USED TO AUGMENT CLOUD COVER ABOVE
       12000 FEET.
       "FAIR" INDICATES FEW OR NO CLOUDS BELOW 12,000 FEET WITH NO
       SIGNIFICANT WEATHER AND/OR OBSTRUCTIONS TO VISIBILITY.

  * THESE STATIONS DO NOT REPORT WEATHER SUCH AS RAIN...SNOW OR FOG.

NEZ001>004-019>022-054>056-220800-
NEBRASKA PANHANDLE

CITY           SKY/WX    TMP DP  RH WIND       PRES   REMARKS
SCOTTSBLUFF    CLEAR     42  32  67 NW5       30.18F
ALLIANCE       CLEAR     34  33  96 W8        30.14F WCI  27
CHADRON        CLEAR     43  40  89 W9        30.12F
GORDON         FAIR      44  39  84 W9        30.10F
KIMBALL        CLEAR     43  40  91 W8        30.22S
SIDNEY         CLOUDY    42  39  89 W9        30.20S
$$

NEZ057>060-069>072-079>082-220800-
SOUTHWEST NEBRASKA

CITY           SKY/WX    TMP DP  RH WIND       PRES   REMARKS
NORTH PLATTE   PTCLDY    49  45  86 NW6       30.11S
IMPERIAL       CLOUDY    52  47  83 W12       30.16R
LEXINGTON      CLOUDY    55  47  76 SW6       30.11S
MCCOOK         CLOUDY    54  48  80 S6        30.14S
OGALLALA       CLEAR     47  43  85 W6        30.15S
$$

NEZ005>010-023>029-035>040-094-220800-
NORTH CENTRAL NEBRASKA

CITY           SKY/WX    TMP DP  RH WIND       PRES   REMARKS
VALENTINE      CLEAR     48  41  76 W9        30.05F
AINSWORTH      CLEAR     49  45  86 W10       30.05S
BROKEN BOW     CLOUDY    49  45  86 W5        30.06F
O`NEILL        CLOUDY    54  45  70 W9        30.02F
ORD            MOCLDY    50  44  80 CALM      30.03F
THEDFORD       CLOUDY    46  44  91 W9        30.10S
$$

NEZ041-046>049-061>064-073>077-083>087-220800-
SOUTH CENTRAL NEBRASKA

CITY           SKY/WX    TMP DP  RH WIND       PRES   REMARKS
GRAND ISLAND   CLOUDY    57  46  66 SW13      30.05F
AURORA         CLOUDY    56  45  66 SW8       30.05F
HASTINGS       CLOUDY    55  46  71 W8        30.08S
HEBRON         PTCLDY    55  49  80 CALM      30.06F
HOLDREGE       CLOUDY    56  47  73 SW9       30.11S
KEARNEY *      CLOUDY    61  45  55 SW9       30.09F
YORK           MOCLDY    55  45  67 S10       30.05F
$$

NEZ011>018-030>034-042>045-220800-
NORTHEAST NEBRASKA

CITY           SKY/WX    TMP DP  RH WIND       PRES   REMARKS
NORFOLK        CLOUDY    54  42  64 S10       30.01S
ALBION         CLOUDY    56  41  57 W5        30.02F
BLAIR          PTCLDY    53  45  74 S9        30.03F
FREMONT        PTCLDY    56  42  61 S8        30.03F
TEKAMAH        CLEAR     51  45  79 S10       30.01F
WAYNE          CLOUDY    53  45  73 SW3       30.00F
$$

NEZ050>053-065>068-078-088>093-220800-
SOUTHEAST NEBRASKA

CITY           SKY/WX    TMP DP  RH WIND       PRES   REMARKS
LINCOLN        CLEAR     50  45  83 SE6       30.06F
OMAHA EPPLEY   CLEAR     50  44  80 SE8       30.04F
BEATRICE       CLEAR     54  46  74 S6        30.06F
FALLS CITY     CLEAR     51  45  79 S5        30.07F
NEBRASKA CITY  CLEAR     53  40  61 SW9       30.06F
PLATTSMOUTH    CLEAR     52  42  68 S9        30.05F
$$

NEZ044-045-051>053-067-220800-
OMAHA AREA

CITY           SKY/WX    TMP DP  RH WIND       PRES   REMARKS
OMAHA EPPLEY   CLEAR     50  44  80 SE8       30.04F
BLAIR          PTCLDY    53  45  74 S9        30.03F
FREMONT        PTCLDY    56  42  61 S8        30.03F
MILLARD        MOCLDY    53  47  82 CALM      30.04F
OFFUTT AFB     CLEAR     55  45  69 VRB5      30.05F
PLATTSMOUTH    CLEAR     52  42  68 S9        30.05F
WAHOO          FAIR      49  44  80 S6        30.04F
$$




USA.gov is the U.S. government's official web portal to all federal, state and local government web resources and services.